This is the latest recevied weather packets stored in our database for station/object N3WPH. If no packets are shown the sender has not sent any weather packets the latest 10 day(s).
| Time | Temp. | Humidity | Pressure | Rain* | Wind** | Luminosity | Snow |
|---|---|---|---|---|---|---|---|
| 1777763596 | 9.44° C | 51% | 1011.9 hPa | 0 mm | - | 23 W/m² | - |
| 1777763294 | 9.44° C | 51% | 1012.3 hPa | 0 mm | - | 24 W/m² | - |
| 1777762992 | 9.44° C | 50% | 1011.9 hPa | 0 mm | - | 25 W/m² | - |
| 1777762689 | 9.44° C | 52% | 1011.9 hPa | 0 mm | - | 28 W/m² | - |
| 1777762385 | 10° C | 51% | 1011.8 hPa | 0 mm | - | 27 W/m² | - |
| 1777762082 | 10° C | 49% | 1011.9 hPa | 0 mm | - | 27 W/m² | - |
| 1777761778 | 10° C | 48% | 1011.8 hPa | 0 mm | - | 34 W/m² | - |
| 1777761476 | 10° C | 50% | 1011.7 hPa | 0 mm | - | 51 W/m² | - |
| 1777761174 | 10° C | 50% | 1011.7 hPa | 0 mm | - | 66 W/m² | - |
| 1777760871 | 10° C | 48% | 1011.7 hPa | 0 mm | - | 69 W/m² | - |
| 1777760568 | 10° C | 49% | 1011.6 hPa | 0 mm | - | 60 W/m² | - |
| 1777760264 | 10° C | 48% | 1011.7 hPa | 0 mm | - | 77 W/m² | - |
| 1777759960 | 10.56° C | 48% | 1011.7 hPa | 0 mm | - | 91 W/m² | - |
| 1777759658 | 10.56° C | 48% | 1011.5 hPa | 0 mm | - | 122 W/m² | - |
| 1777759353 | 10.56° C | 46% | 1011.5 hPa | 0 mm | - | 104 W/m² | - |
| 1777759050 | 10.56° C | 47% | 1011.5 hPa | 0 mm | - | 88 W/m² | - |
| 1777758747 | 10.56° C | 50% | 1011.5 hPa | 0 mm | - | 102 W/m² | - |
| 1777758445 | 10.56° C | 45% | 1011.8 hPa | 0 mm | - | 73 W/m² | - |
| 1777758142 | 10.56° C | 48% | 1011.5 hPa | 0 mm | - | 73 W/m² | - |
| 1777757839 | 10.56° C | 46% | 1011.6 hPa | 0 mm | - | 87 W/m² | - |
| 1777757536 | 10.56° C | 42% | 1011.6 hPa | 0 mm | - | 93 W/m² | - |
| 1777757235 | 10.56° C | 45% | 1011.5 hPa | 0 mm | - | 112 W/m² | - |
| 1777756932 | 10.56° C | 46% | 1011.4 hPa | 0 mm | - | 107 W/m² | - |
| 1777756628 | 10.56° C | 47% | 1011.5 hPa | 0 mm | - | 102 W/m² | - |
| 1777756325 | 10.56° C | 50% | 1011.3 hPa | 0 mm | - | 117 W/m² | - |
* Rain latest hour (hover to see other rain measurements)
** Current wind speed in m/s (hover to see current wind gust speed)